Waarnemingen

Advertentie
Mijn weer
Lyon/Bron, Frankrijk (7480): temperatuur & dauwpunt: 20.05.2019 15:00:00 - 26.05.2019 15:00:00 (CEST)Lyon/Bron, Frankrijk (7480): temperatuur 5cm: 20.05.2019 15:00:00 - 26.05.2019 15:00:00 (CEST)Lyon/Bron, Frankrijk (7480): temperatuur -20cm: 20.05.2019 15:00:00 - 26.05.2019 15:00:00 (CEST)Lyon/Bron, Frankrijk (7480): windsnelheid & windstoten: 20.05.2019 15:00:00 - 26.05.2019 15:00:00 (CEST)Lyon/Bron, Frankrijk (7480): windrichting: 20.05.2019 15:00:00 - 26.05.2019 15:00:00 (CEST)Lyon/Bron, Frankrijk (7480): luchtdruk: 20.05.2019 15:00:00 - 26.05.2019 15:00:00 (CEST)Lyon/Bron, Frankrijk (7480): zicht: 20.05.2019 15:00:00 - 26.05.2019 15:00:00 (CEST)Lyon/Bron, Frankrijk (7480): Zonneschijnduur: 20.05.2019 15:00:00 - 26.05.2019 15:00:00 (CEST)Lyon/Bron, Frankrijk (7480): neerslag: 20.05.2019 15:00:00 - 26.05.2019 15:00:00 (CEST)
Datum & Tijd tt [°C] td [°C] tt 5cm [°C] tt -20cm [°C] ff [km/u] ff [kn] fx [km/u] fx [kn] dd ppp [hPa] vv [km] sd [min] rr [mm]
26.05.2019 15:00:00 22,8 6,5 28,0 19,0 23 12 44 24 NNW 1015,4 16 60 0,0
26.05.2019 14:00:00 21,9 7,3 27,2 18,7 29 16 44 24 N 1016,0 16 60 0,0
26.05.2019 13:00:00 21,3 8,2 26,9 18,5 25 13 40 21 N 1016,5 20 60 0,0
26.05.2019 12:00:00 20,3 8,3 25,3 18,4 21 12 36 19 N 1016,8 18 60 0,0
26.05.2019 11:00:00 19,3 8,3 22,5 18,4 22 12 34 18 N 1017,2 16 60 0,0
26.05.2019 10:00:00 17,3 8,7 20,0 18,4 23 12 32 18 NNW 1017,7 19 60 0,0
26.05.2019 09:00:00 15,9 9,1 16,5 18,6 22 12 32 17 NNW 1017,9 36 60 0,0
26.05.2019 08:00:00 14,2 8,8 13,2 18,7 16 8 25 14 N 1018,0 60 4 0,0
26.05.2019 07:00:00 14,2 8,4 13,0 18,9 18 10 34 18 N 1017,6 15 0 0,0
26.05.2019 06:00:00 14,4 8,8 13,0 19,0 19 10 30 16 NNW 1017,2 43 0 0,0
26.05.2019 05:00:00 15,4 8,4 14,3 19,2 21 11 29 15 N 1017,1 47 0 0,0
26.05.2019 04:00:00 15,7 8,9 14,6 19,3 13 7 29 15 N 1017,1 44 0 0,0
26.05.2019 03:00:00 16,1 8,6 15,0 19,5 15 8 27 14 N 1017,1 48 0 0,0
26.05.2019 02:00:00 16,7 9,1 15,7 19,6 17 9 34 18 N 1017,5 43 0 0,0
26.05.2019 01:00:00 17,3 9,5 16,1 19,8 17 9 30 16 N 1017,6 41 0 0,0
26.05.2019 00:00:00 18,4 8,6 17,2 19,9 19 10 31 17 N 1017,5 49 0 0,0
25.05.2019 23:00:00 19,1 7,8 17,9 20,1 19 11 31 17 NNW 1017,1 51 0 0,0
25.05.2019 22:00:00 19,7 8,7 16,6 20,2 16 9 27 15 NNW 1016,5 42 0 0,0
25.05.2019 21:00:00 18,3 12,1 17,1 20,2 10 5 22 12 WZW 1016,0 37 0 0,0
25.05.2019 20:00:00 19,1 11,1 18,1 20,3 14 7 26 14 W 1015,7 48 4 0,0
25.05.2019 19:00:00 20,1 10,8 16,5 20,2 11 6 35 19 NW 1015,2 58 0 0,0
25.05.2019 18:00:00 21,5 9,7 20,9 20,0 26 14 39 21 NNW 1014,9 36 0 0,0
25.05.2019 17:00:00 22,9 10,0 23,4 19,7 22 12 39 21 N 1014,4 31 4 0,0
25.05.2019 16:00:00 23,1 9,8 23,4 19,5 24 13 36 20 N 1014,4 28 36 0,0
25.05.2019 15:00:00 24,1 8,9 25,7 19,1 21 11 42 23 NNW 1014,6 32 39 0,0
25.05.2019 14:00:00 23,9 9,1 23,7 18,8 19 10 35 19 N 1015,0 22 49 0,0
25.05.2019 13:00:00 23,2 9,9 28,1 18,5 23 13 37 20 N 1015,4 10 60 0,0
25.05.2019 12:00:00 22,5 10,6 26,8 18,4 21 12 34 18 NNW 1015,8 17 60 0,0
25.05.2019 11:00:00 20,7 10,2 24,2 18,4 17 9 28 15 NNW 1015,9 18 60 0,0
25.05.2019 10:00:00 19,4 10,7 22,3 18,4 13 7 30 16 N 1016,0 18 56 0,0
25.05.2019 09:00:00 18,5 10,1 21,5 18,5 15 8 29 15 N 1015,9 20 60 0,0
25.05.2019 08:00:00 17,7 10,3 15,6 18,7 9 5 17 9 N 1015,6 23 60 0,0
25.05.2019 07:00:00 16,2 9,6 14,6 18,8 9 5 16 9 N 1015,4 20 9 0,0
25.05.2019 06:00:00 16,9 9,1 15,0 19,0 10 5 23 12 N 1014,8 35 0 0,0
25.05.2019 05:00:00 17,3 8,7 15,5 19,2 14 8 24 13 NNW 1014,3 36 0 0,0
25.05.2019 04:00:00 17,4 8,5 15,8 19,4 14 8 29 15 NNW 1014,3 37 0 0,0
25.05.2019 03:00:00 18,0 8,5 15,3 19,6 17 9 23 13 NNW 1014,1 41 0 0,0
25.05.2019 02:00:00 18,1 8,4 16,1 19,7 13 7 23 13 N 1014,2 41 0 0,0
25.05.2019 01:00:00 18,8 8,4 16,8 19,9 16 9 27 15 NNW 1014,4 41 0 0,0
25.05.2019 00:00:00 19,7 9,0 18,1 20,0 17 9 27 15 NNW 1014,1 42 0 0,0
24.05.2019 23:00:00 20,2 9,4 18,2 20,1 13 7 25 14 NNW 1013,7 40 0 0,0
24.05.2019 22:00:00 21,2 9,4 19,6 20,1 19 10 28 15 NNW 1013,2 41 0 0,0
24.05.2019 21:00:00 22,2 9,0 20,5 20,1 12 6 26 14 N 1012,7 51 0 0,0
24.05.2019 20:00:00 23,5 8,4 24,1 20,0 17 9 29 15 N 1012,0 27 57 0,0
24.05.2019 19:00:00 24,1 8,9 23,9 19,8 17 9 29 16 N 1011,8 38 20 0,0
24.05.2019 18:00:00 24,9 9,2 26,5 19,6 16 9 29 16 N 1011,8 44 60 0,0
24.05.2019 17:00:00 24,7 8,6 24,6 19,2 18 10 29 16 N 1012,2 20 31 0,0
24.05.2019 16:00:00 24,9 8,8 29,2 18,8 13 7 29 16 NNO 1012,6 18 53 0,0
24.05.2019 15:00:00 24,9 8,8 27,6 18,4 17 9 32 18 N 1013,0 32 52 0,0
24.05.2019 14:00:00 24,5 8,4 30,0 18,1 13 7 27 15 N 1013,4 20 58 0,0
24.05.2019 13:00:00 23,5 8,4 29,1 17,8 9 5 24 13 NNO 1013,9 53 60 0,0
24.05.2019 12:00:00 22,7 8,0 28,5 17,7 13 7 22 12 NNW 1014,5 37 60 0,0
24.05.2019 11:00:00 20,9 8,5 22,0 17,6 6 3 14 8 NW 1014,8 60 41 0,0
24.05.2019 10:00:00 19,8 8,2 24,4 17,7 8 4 13 7 NNW 1015,0 54 58 0,0
24.05.2019 09:00:00 17,5 8,4 20,3 17,8 4 2 7 4 NW 1015,3 38 54 0,0
24.05.2019 08:00:00 16,2 9,1 12,8 17,9 0 0 4 2 N 1015,3 43 53 0,0
24.05.2019 07:00:00 12,7 8,6 9,2 18,1 0 0 4 2 N 1015,3 39 25 0,0
24.05.2019 06:00:00 12,8 8,1 9,9 18,3 0 0 6 3 N 1015,1 18 0 0,0
24.05.2019 05:00:00 12,8 8,1 8,3 18,5 3 2 6 3 OZO 1014,9 44 0 0,0
24.05.2019 04:00:00 12,7 8,2 8,1 18,7 4 2 7 4 Z 1015,0 48 0 0,0
24.05.2019 03:00:00 13,8 8,2 9,0 18,9 5 3 9 5 ZZW 1015,1 45 0 0,0
24.05.2019 02:00:00 14,5 8,7 9,9 19,0 5 3 10 5 Z 1015,3 43 0 0,0
24.05.2019 01:00:00 14,5 8,0 9,9 19,2 5 3 8 4 Z 1015,5 51 0 0,0
24.05.2019 00:00:00 15,4 7,9 10,3 19,3 4 2 5 3 W 1015,5 60 0 0,0
23.05.2019 23:00:00 16,3 6,4 10,9 19,5 0 0 5 3 N 1015,4 60 0 0,0
23.05.2019 22:00:00 18,4 6,2 12,8 19,5 3 1 10 5 N 1015,1 60 0 0,0
23.05.2019 21:00:00 20,1 6,4 16,5 19,5 7 4 17 9 N 1014,7 60 0 0,0
23.05.2019 20:00:00 22,3 6,5 23,8 19,3 10 5 19 11 N 1014,2 56 43 0,0
23.05.2019 19:00:00 23,8 6,6 28,5 19,1 10 5 20 11 NNO 1014,0 45 60 0,0
23.05.2019 18:00:00 24,2 4,5 30,6 18,7 8 4 20 11 NNO 1014,3 60 60 0,0
23.05.2019 17:00:00 24,3 1,8 29,6 18,3 8 4 22 12 NNO 1014,8 19 60 0,0
23.05.2019 16:00:00 24,0 2,7 29,7 17,8 8 4 23 13 NW 1015,2 42 60 0,0
23.05.2019 15:00:00 23,0 3,0 29,9 17,4 8 4 18 10 OZO 1015,9 52 60 0,0
23.05.2019 14:00:00 21,9 5,7 28,6 17,0 9 5 18 10 N 1016,4 60 60 0,0
23.05.2019 13:00:00 20,9 4,9 27,7 16,8 6 3 19 10 NNO 1017,1 57 60 0,0
23.05.2019 12:00:00 20,2 6,2 27,0 16,5 5 3 13 7 O 1017,9 57 60 0,0
23.05.2019 11:00:00 19,0 5,8 24,1 16,5 6 3 13 7 NO 1018,0 55 60 0,0
23.05.2019 10:00:00 17,2 6,7 21,5 16,6 5 3 14 8 N 1018,3 45 60 0,0
23.05.2019 09:00:00 15,1 6,4 18,9 16,7 10 5 16 9 N 1018,5 60 60 0,0
23.05.2019 08:00:00 13,1 7,1 7,8 16,9 2 1 5 3 OZO 1018,4 20 42 0,0
23.05.2019 07:00:00 9,5 5,7 4,1 17,1 2 1 4 2 OZO 1018,5 44 33 0,0
23.05.2019 06:00:00 9,1 5,1 4,0 17,3 3 1 5 3 O 1018,4 60 0 0,0
23.05.2019 05:00:00 10,7 4,8 5,1 17,5 3 2 5 3 N 1018,4 60 0 0,0
23.05.2019 04:00:00 10,8 5,1 5,5 17,7 0 0 8 4 N 1018,4 60 0 0,0
23.05.2019 03:00:00 13,5 5,1 9,9 17,9 8 4 15 8 N 1018,4 20 0 0,0
23.05.2019 02:00:00 14,2 5,5 8,6 18,1 11 6 13 7 NNW 1018,5 59 0 0,0
23.05.2019 01:00:00 13,7 5,6 8,2 18,3 8 5 13 7 NNW 1018,6 60 0 0,0
23.05.2019 00:00:00 14,2 5,0 8,2 18,4 9 5 11 6 NNW 1018,7 60 0 0,0
22.05.2019 23:00:00 16,0 5,6 11,8 18,6 7 4 15 8 N 1018,6 60 0 0,0
22.05.2019 22:00:00 16,7 7,1 13,2 18,6 9 5 16 9 N 1018,4 60 0 0,0
22.05.2019 21:00:00 18,4 7,2 15,8 18,6 10 5 27 15 N 1017,9 60 4 0,0
22.05.2019 20:00:00 20,7 7,3 22,6 18,4 15 8 31 17 N 1017,5 50 60 0,0
22.05.2019 19:00:00 21,4 6,5 25,3 18,2 22 12 36 19 N 1017,2 58 60 0,0
22.05.2019 18:00:00 22,2 6,8 27,3 17,9 22 12 36 19 N 1017,3 43 60 0,0
22.05.2019 17:00:00 22,2 5,2 27,5 17,6 20 11 35 19 N 1017,4 38 60 0,0
22.05.2019 16:00:00 22,6 7,6 26,5 17,2 22 12 38 21 N 1017,7 36 60 0,0
22.05.2019 15:00:00 21,8 7,2 26,3 16,8 28 15 45 24 N 1017,7 36 60 0,0
22.05.2019 14:00:00 21,4 8,0 26,1 16,4 26 14 41 22 N 1018,0 19 60 0,0
22.05.2019 13:00:00 21,0 6,9 26,1 16,2 25 13 43 23 N 1018,1 20 60 0,0
22.05.2019 12:00:00 20,7 8,0 25,1 16,1 24 13 41 22 N 1018,2 33 60 0,0
22.05.2019 11:00:00 19,2 9,1 23,0 16,0 24 13 43 23 N 1018,3 29 60 0,0
22.05.2019 10:00:00 17,1 9,5 21,4 16,1 16 9 26 14 N 1018,6 34 60 0,0
22.05.2019 09:00:00 15,4 8,6 17,1 16,2 11 6 18 10 NNW 1018,7 39 60 0,0
22.05.2019 08:00:00 13,7 7,7 11,4 16,3 8 4 16 9 N 1018,7 47 60 0,0
22.05.2019 07:00:00 12,2 7,1 10,4 16,4 5 3 21 11 N 1018,5 43 7 0,0
22.05.2019 06:00:00 12,3 7,2 10,1 16,6 15 8 20 11 NNW 1018,0 39 0 0,0
22.05.2019 05:00:00 12,3 7,2 10,3 16,8 10 5 16 9 N 1017,9 49 0 0,0
22.05.2019 04:00:00 12,8 7,7 9,8 17,0 13 7 18 10 NNW 1017,7 43 0 0,0
22.05.2019 03:00:00 12,7 8,0 10,2 17,1 11 6 14 8 N 1017,6 45 0 0,0
22.05.2019 02:00:00 13,6 8,2 10,1 17,2 9 5 13 7 NNW 1017,6 44 0 0,0
22.05.2019 01:00:00 14,6 8,5 12,2 17,4 8 4 14 8 N 1017,6 50 0 0,0
22.05.2019 00:00:00 14,8 9,2 12,1 17,5 9 5 17 9 NNW 1017,5 45 0 0,0
21.05.2019 23:00:00 15,6 9,3 12,6 17,6 13 7 17 9 NNW 1017,2 43 0 0,0
21.05.2019 22:00:00 16,6 9,3 15,0 17,7 14 7 24 13 NNW 1016,6 52 0 0,0
21.05.2019 21:00:00 17,7 9,3 16,4 17,6 19 11 34 18 NNW 1015,9 59 0 0,0
21.05.2019 20:00:00 19,3 10,0 19,2 17,5 21 11 35 19 N 1015,4 51 25 0,0
21.05.2019 19:00:00 19,0 9,7 18,4 17,3 19 10 36 19 N 1015,3 35 18 0,0
21.05.2019 18:00:00 20,1 9,6 20,5 17,0 23 12 37 20 N 1015,0 34 50 0,0
21.05.2019 17:00:00 20,3 9,8 24,0 16,7 21 12 41 22 N 1015,1 22 56 0,0
21.05.2019 16:00:00 19,8 9,7 24,2 16,4 22 12 39 21 N 1015,3 21 60 0,0
21.05.2019 15:00:00 19,1 10,1 21,5 16,1 23 13 36 19 N 1015,6 19 40 0,0
21.05.2019 14:00:00 18,5 9,6 21,5 15,9 24 13 39 21 N 1015,6 20 32 0,0
21.05.2019 13:00:00 18,1 10,5 19,7 15,8 20 11 34 18 NNO 1015,5 19 26 0,0
21.05.2019 12:00:00 17,5 9,1 19,6 15,7 18 10 32 17 N 1015,5 22 34 0,0
21.05.2019 11:00:00 16,6 10,9 15,8 15,6 13 7 22 12 N 1015,6 16 9 0,0
21.05.2019 10:00:00 15,4 11,0 16,0 15,6 14 8 24 13 N 1015,4 13 5 0,0
21.05.2019 09:00:00 15,2 11,0 14,2 15,7 9 5 13 7 N 1015,1 14 8 0,0
21.05.2019 08:00:00 13,6 11,3 13,0 15,7 4 2 7 4 NNO 1014,9 9 0 0,0
21.05.2019 07:00:00 13,1 10,8 12,3 15,8 0 0 4 2 N 1014,4 8 0 0,0
21.05.2019 06:00:00 13,0 10,9 12,1 15,8 3 2 4 2 NO 1014,2 8 0 0,0
21.05.2019 05:00:00 13,2 10,7 12,5 15,9 0 0 7 4 N 1014,2 10 0 0,0
21.05.2019 04:00:00 13,4 10,7 12,6 16,0 5 3 9 5 N 1014,1 11 0 0,0
21.05.2019 03:00:00 13,6 10,6 13,0 16,0 7 4 12 6 N 1014,2 12 0 0,0
21.05.2019 02:00:00 13,7 10,9 12,9 16,1 7 4 13 7 N 1014,0 13 0 0,0
21.05.2019 01:00:00 13,9 11,2 12,9 16,2 9 5 17 9 N 1013,9 14 0 0,0
21.05.2019 00:00:00 14,1 11,1 12,5 16,2 11 6 18 10 N 1013,8 22 0 0,0
20.05.2019 23:00:00 13,9 11,6 12,4 16,3 4 2 32 17 NW 1013,5 17 0 0,2
20.05.2019 22:00:00 15,3 11,1 13,3 16,3 19 11 30 16 NNW 1013,0 13 0 0,0
20.05.2019 21:00:00 15,7 10,0 14,4 16,3 11 6 22 12 NNW 1012,2 31 0 0,0
20.05.2019 20:00:00 15,0 11,6 14,4 16,3 6 3 17 9 NNO 1011,9 23 0 0,0
20.05.2019 19:00:00 15,0 11,4 14,5 16,2 11 6 29 15 N 1011,4 29 0 0,0
20.05.2019 18:00:00 17,7 9,6 18,2 16,1 21 11 32 17 NNW 1010,8 43 0 0,0
20.05.2019 17:00:00 17,8 9,7 18,2 16,0 16 9 31 17 NNW 1010,6 44 2 0,0
20.05.2019 16:00:00 18,3 9,6 16,5 15,9 20 11 34 19 NNW 1010,4 30 11 0,0
20.05.2019 15:00:00 16,7 9,9 16,8 15,8 18 10 30 16 WNW 1010,4 34 0 0,0

tt = temperatuur
td = dauwpunt
tt 5cm = temperatuur 5cm
tt -20cm = temperatuur -20cm
ff = windsnelheid
fx = windstoten
dd = windrichting
ppp = luchtdruk
vv = zicht
sd = Zonneschijnduur
rr = neerslag

Weerstations in de omgeving